When you browse on this site, cookies collect data to enhance your experience and personalize the content and advertising you see.
Visit our Privacy Policy to learn more. By continuing to use the site, you agree to this use of cookies and data.
  • In Lithuania
  • List of Countries
  • For 7 days
  • Water Temperature
  • Satellite Maps
  • Weather Map
  • Weather Widgets
  • user-avatar
    Login

    Hourly Weather Olginskaya

    Today, 23 March, Saturday

    Time Temperature Precipitation Wind Pressure Humidity
    00:00 +3°C° 1 mm 10 mps 757 mmHg 79%
    01:00 +4°C° 0.7 mm 8 mps 757 mmHg 78%
    02:00 +4°C° 0.7 mm 7 mps 757 mmHg 77%
    03:00 +4°C° 0 mm 6 mps 757 mmHg 73%
    04:00 +3°C° 0 mm 5 mps 757 mmHg 74%
    05:00 +2°C° 0 mm 5 mps 757 mmHg 74%
    06:00 +1°C° 0 mm 4 mps 757 mmHg 74%
    07:00 +2°C° 0 mm 5 mps 758 mmHg 68%
    08:00 +2°C° 0 mm 6 mps 758 mmHg 62%
    09:00 +3°C° 0 mm 6 mps 758 mmHg 56%
    10:00 +3°C° 0 mm 6 mps 758 mmHg 52%
    11:00 +4°C° 0 mm 6 mps 758 mmHg 47%
    12:00 +5°C° 0 mm 6 mps 758 mmHg 43%
    13:00 +5°C° 0 mm 6 mps 758 mmHg 42%
    14:00 +5°C° 0 mm 6 mps 758 mmHg 41%
    15:00 +7°C° 0 mm 6 mps 758 mmHg 40%
    16:00 +5°C° 0 mm 6 mps 758 mmHg 44%
    17:00 +6°C° 0 mm 5 mps 758 mmHg 49%
    18:00 +5°C° 0 mm 5 mps 758 mmHg 53%
    19:00 +5°C° 0.1 mm 4 mps 759 mmHg 59%
    20:00 +4°C° 0.1 mm 4 mps 759 mmHg 65%
    21:00 +3°C° 0.1 mm 4 mps 759 mmHg 71%
    22:00 +3°C° 0.1 mm 4 mps 759 mmHg 74%
    23:00 +3°C° 0.1 mm 4 mps 760 mmHg 76%

    Tomorrow, 24 March, Sunday

    Time Temperature Precipitation Wind Pressure Humidity
    00:00 +2°C° 0.1 mm 3 mps 760 mmHg 79%
    01:00 +2°C° 0.1 mm 3 mps 760 mmHg 80%
    02:00 +2°C° 0.1 mm 3 mps 760 mmHg 80%
    03:00 +2°C° 0.1 mm 3 mps 760 mmHg 81%
    04:00 +2°C° 0.1 mm 3 mps 760 mmHg 82%
    05:00 +2°C° 0.1 mm 3 mps 760 mmHg 82%
    06:00 +2°C° 0.1 mm 3 mps 761 mmHg 83%
    07:00 +1°C° 0 mm 4 mps 761 mmHg 80%
    08:00 +1°C° 0 mm 4 mps 761 mmHg 78%
    09:00 +1°C° 0 mm 4 mps 762 mmHg 76%
    10:00 +3°C° 0 mm 4 mps 762 mmHg 73%
    11:00 +3°C° 0 mm 4 mps 762 mmHg 70%
    12:00 +4°C° 0 mm 4 mps 762 mmHg 68%
    13:00 +4°C° 0.1 mm 4 mps 762 mmHg 65%
    14:00 +4°C° 0.1 mm 4 mps 762 mmHg 63%
    15:00 +5°C° 0.1 mm 5 mps 762 mmHg 60%
    16:00 +5°C° 0 mm 5 mps 762 mmHg 61%
    17:00 +3°C° 0 mm 5 mps 762 mmHg 62%
    18:00 +4°C° 0 mm 4 mps 762 mmHg 62%
    19:00 +4°C° 0 mm 4 mps 762 mmHg 64%
    20:00 +3°C° 0 mm 3 mps 763 mmHg 66%
    21:00 +3°C° 0 mm 3 mps 763 mmHg 68%
    22:00 +3°C° 0 mm 3 mps 763 mmHg 70%
    23:00 +2°C° 0 mm 3 mps 762 mmHg 72%

    Day after tomorrow, 25 March, Monday

    Time Temperature Precipitation Wind Pressure Humidity
    00:00 +2°C° 0 mm 3 mps 762 mmHg 74%
    01:00 +2°C° 0 mm 3 mps 762 mmHg 78%
    02:00 +1°C° 0 mm 3 mps 762 mmHg 82%
    03:00 0°C° 0 mm 4 mps 762 mmHg 87%
    04:00 0°C° 0 mm 4 mps 762 mmHg 87%
    05:00 0°C° 0 mm 4 mps 762 mmHg 87%
    06:00 +1°C° 0 mm 3 mps 761 mmHg 87%
    07:00 +2°C° 0 mm 3 mps 762 mmHg 82%
    08:00 +3°C° 0 mm 3 mps 762 mmHg 77%
    09:00 +4°C° 0 mm 3 mps 762 mmHg 72%
    10:00 +7°C° 0 mm 3 mps 762 mmHg 66%
    11:00 +8°C° 0 mm 3 mps 761 mmHg 60%
    12:00 +10°C° 0 mm 3 mps 761 mmHg 54%
    13:00 +10°C° 0 mm 3 mps 761 mmHg 52%
    14:00 +10°C° 0 mm 3 mps 761 mmHg 50%
    15:00 +11°C° 0 mm 3 mps 760 mmHg 47%
    16:00 +10°C° 0 mm 2 mps 760 mmHg 49%
    17:00 +10°C° 0 mm 2 mps 760 mmHg 51%
    18:00 +11°C° 0 mm 1 mps 760 mmHg 53%
    19:00 +10°C° 0 mm 1 mps 761 mmHg 55%
    20:00 +9°C° 0 mm 1 mps 761 mmHg 58%
    21:00 +8°C° 0 mm 1 mps 761 mmHg 61%
    22:00 +8°C° 0 mm 1 mps 761 mmHg 63%
    23:00 +6°C° 0 mm 0 mps 761 mmHg 66%

    26 March, Tuesday

    Time Temperature Precipitation Wind Pressure Humidity
    00:00 +6°C° 0 mm 0 mps 761 mmHg 69%
    01:00 +7°C° 0 mm 1 mps 761 mmHg 70%
    02:00 +6°C° 0 mm 1 mps 761 mmHg 72%
    03:00 +6°C° 0 mm 1 mps 761 mmHg 73%
    04:00 +6°C° 0 mm 1 mps 761 mmHg 76%
    05:00 +4°C° 0 mm 2 mps 761 mmHg 79%
    06:00 +4°C° 0 mm 2 mps 761 mmHg 81%
    07:00 +5°C° 0 mm 2 mps 761 mmHg 75%
    08:00 +7°C° 0 mm 3 mps 761 mmHg 69%
    09:00 +8°C° 0 mm 3 mps 761 mmHg 63%
    10:00 +9°C° 0 mm 3 mps 761 mmHg 57%
    11:00 +11°C° 0 mm 3 mps 761 mmHg 52%
    12:00 +12°C° 0 mm 3 mps 761 mmHg 46%
    13:00 +12°C° 0 mm 3 mps 760 mmHg 44%
    14:00 +13°C° 0 mm 3 mps 760 mmHg 42%
    15:00 +14°C° 0 mm 3 mps 760 mmHg 41%
    16:00 +14°C° 0 mm 2 mps 759 mmHg 44%
    17:00 +14°C° 0 mm 2 mps 759 mmHg 46%
    18:00 +14°C° 0 mm 2 mps 759 mmHg 49%
    19:00 +13°C° 0 mm 2 mps 759 mmHg 52%
    20:00 +12°C° 0 mm 2 mps 759 mmHg 55%
    21:00 +10°C° 0 mm 2 mps 759 mmHg 59%
    22:00 +9°C° 0 mm 2 mps 759 mmHg 60%
    23:00 +9°C° 0 mm 2 mps 758 mmHg 62%

    27 March, Wednesday

    Time Temperature Precipitation Wind Pressure Humidity
    00:00 +8°C° 0 mm 3 mps 758 mmHg 64%
    01:00 +8°C° 0 mm 3 mps 758 mmHg 67%
    02:00 +7°C° 0 mm 3 mps 758 mmHg 69%
    03:00 +6°C° 0 mm 4 mps 758 mmHg 72%
    04:00 +7°C° 0 mm 3 mps 759 mmHg 74%
    05:00 +7°C° 0 mm 3 mps 759 mmHg 77%
    06:00 +7°C° 0 mm 2 mps 759 mmHg 79%
    07:00 +7°C° 0 mm 3 mps 760 mmHg 73%
    08:00 +6°C° 0 mm 5 mps 760 mmHg 67%
    09:00 +5°C° 0 mm 6 mps 761 mmHg 61%
    10:00 +7°C° 0 mm 5 mps 761 mmHg 52%
    11:00 +8°C° 0 mm 5 mps 762 mmHg 43%
    12:00 +8°C° 0 mm 5 mps 762 mmHg 34%
    13:00 +9°C° 0 mm 5 mps 762 mmHg 32%
    14:00 +10°C° 0 mm 4 mps 762 mmHg 29%
    15:00 +10°C° 0 mm 4 mps 762 mmHg 26%
    16:00 +10°C° 0 mm 4 mps 763 mmHg 28%
    17:00 +8°C° 0 mm 4 mps 763 mmHg 29%
    18:00 +9°C° 0 mm 3 mps 763 mmHg 31%
    19:00 +8°C° 0 mm 3 mps 763 mmHg 34%
    20:00 +7°C° 0 mm 3 mps 764 mmHg 38%
    21:00 +5°C° 0 mm 3 mps 764 mmHg 42%
    22:00 +5°C° 0 mm 3 mps 764 mmHg 47%
    23:00 +4°C° 0 mm 3 mps 764 mmHg 51%

    28 March, Thursday

    Time Temperature Precipitation Wind Pressure Humidity
    00:00 +4°C° 0 mm 3 mps 764 mmHg 56%
    01:00 +3°C° 0 mm 3 mps 765 mmHg 58%
    02:00 +3°C° 0 mm 3 mps 765 mmHg 61%
    03:00 +4°C° 0 mm 2 mps 765 mmHg 63%
    04:00 +2°C° 0 mm 3 mps 766 mmHg 65%
    05:00 +2°C° 0 mm 3 mps 766 mmHg 67%
    06:00 +1°C° 0 mm 3 mps 766 mmHg 68%
    07:00 +2°C° 0 mm 3 mps 766 mmHg 60%
    08:00 +3°C° 0 mm 3 mps 767 mmHg 51%
    09:00 +3°C° 0 mm 4 mps 767 mmHg 43%
    10:00 +4°C° 0 mm 4 mps 767 mmHg 40%
    11:00 +5°C° 0 mm 4 mps 767 mmHg 36%
    12:00 +6°C° 0 mm 4 mps 767 mmHg 33%
    13:00 +6°C° 0 mm 4 mps 767 mmHg 36%
    14:00 +7°C° 0 mm 4 mps 767 mmHg 39%
    15:00 +7°C° 0 mm 4 mps 767 mmHg 42%
    16:00 +7°C° 0.1 mm 4 mps 767 mmHg 44%
    17:00 +6°C° 0.1 mm 4 mps 767 mmHg 47%
    18:00 +7°C° 0.1 mm 3 mps 767 mmHg 49%
    19:00 +5°C° 0 mm 3 mps 768 mmHg 52%
    20:00 +4°C° 0 mm 3 mps 768 mmHg 55%
    21:00 +4°C° 0 mm 3 mps 769 mmHg 58%
    22:00 +3°C° 0 mm 3 mps 769 mmHg 60%
    23:00 +3°C° 0 mm 2 mps 769 mmHg 61%
    Show more